CDT,Max TemperatureF,Mean TemperatureF,Min TemperatureF,Max Dew PointF,MeanDew PointF,Min DewpointF,Max Humidity, Mean Humidity, Min Humidity, Max Sea Level PressureIn, Mean Sea Level PressureIn, Min Sea Level PressureIn, Max VisibilityMiles, Mean VisibilityMiles, Min VisibilityMiles, Max Wind SpeedMPH, Mean Wind SpeedMPH, Max Gust SpeedMPH,PrecipitationIn, CloudCover, Events, WindDirDegrees
2013-6-1,80,70,60,69,63,58,100,74,48,29.99,29.83,29.63,10,10,7,18,7,25,T,5,Rain-Thunderstorm,55
2013-6-2,71,63,55,58,56,54,93,77,61,30.09,30.03,29.99,10,10,10,15,8,19,0.00,4,,344
2013-6-3,81,67,52,66,60,52,100,77,54,30.02,29.94,29.82,10,10,6,18,8,23,0.00,4,,131
2013-6-4,81,74,66,69,67,63,93,81,69,29.95,29.87,29.78,10,9,5,26,10,40,0.35,6,Rain-Thunderstorm,143
2013-6-5,83,75,66,68,67,64,100,79,58,29.96,29.90,29.83,10,8,2,23,9,28,0.61,6,Rain-Thunderstorm,253
2013-6-6,79,70,61,64,59,54,93,68,43,29.95,29.92,29.88,10,9,7,17,9,21,0.00,6,,352
2013-6-7,82,70,57,60,56,54,93,68,42,29.99,29.94,29.88,10,10,10,14,5,18,0.00,2,,1
2013-6-8,84,71,58,62,57,55,93,68,42,29.91,29.86,29.77,10,10,10,22,11,34,0.00,6,,164
2013-6-9,88,78,67,64,60,55,78,57,35,29.88,29.83,29.78,10,10,7,18,8,26,0.00,2,,228
2013-6-10,95,85,74,68,64,58,69,52,34,29.90,29.84,29.80,10,10,10,20,11,26,0.00,1,,208
2013-6-11,95,85,75,70,67,63,69,53,36,29.92,29.87,29.83,10,10,10,24,15,33,0.00,1,,188
2013-6-12,95,86,77,72,69,66,76,58,39,29.91,29.87,29.84,10,10,8,28,16,36,0.00,1,,196
2013-6-13,93,83,73,71,68,55,87,66,45,30.04,29.94,29.88,13,10,9,14,5,21,0.00,2,,38
2013-6-14,97,84,71,73,70,67,84,65,45,29.96,29.90,29.84,10,10,10,17,9,21,0.00,2,,153
2013-6-15,89,81,72,75,72,69,87,73,59,29.96,29.93,29.91,10,9,6,24,10,29,0.03,7,Rain,158
2013-6-16,92,81,70,74,69,63,93,75,56,29.96,29.92,29.86,10,9,6,28,8,35,T,5,Rain-Thunderstorm,159
2013-6-17,81,74,67,70,66,63,100,84,67,29.97,29.91,29.84,10,8,1,30,7,36,0.70,6,Rain-Thunderstorm,359
2013-6-18,89,77,65,69,65,60,100,70,40,30.01,29.96,29.91,10,10,9,13,6,22,0.00,5,,85
2013-6-19,87,77,66,68,65,63,93,69,45,30.01,29.95,29.91,10,10,8,20,9,26,0.00,5,,147
2013-6-20,94,84,73,74,70,66,79,66,52,29.99,29.94,29.88,10,10,9,25,14,33,0.00,3,,156
2013-6-21,95,87,78,71,69,64,79,59,39,29.99,29.95,29.91,10,9,7,24,15,31,0.00,3,,168
2013-6-22,93,84,75,70,67,63,82,60,38,29.97,29.92,29.84,10,9,7,25,15,33,0.00,1,,166
2013-6-23,94,86,78,70,68,66,74,58,41,29.90,29.87,29.82,10,10,7,26,16,34,0.00,1,,166
2013-6-24,93,85,76,70,68,64,76,59,41,29.96,29.91,29.85,10,9,7,25,15,31,0.00,3,,167
2013-6-25,91,85,78,72,70,67,74,62,49,29.88,29.83,29.75,10,10,9,31,17,39,0.00,6,,170
2013-6-26,96,88,80,75,71,66,69,59,48,29.87,29.82,29.76,10,10,8,20,11,26,0.00,4,,184
2013-6-27,100,89,78,76,72,62,79,62,45,29.93,29.87,29.80,10,10,8,27,10,41,0.00,4,,178
2013-6-28,97,86,74,70,65,59,79,56,33,29.94,29.87,29.81,10,10,10,18,9,28,0.00,4,,333
2013-6-29,93,80,67,61,57,53,81,55,28,29.90,29.85,29.78,10,10,10,25,11,30,0.00,3,,337
2013-6-30,86,74,62,58,55,53,78,58,37,29.96,29.91,29.85,10,10,10,25,11,32,0.00,2,,347